1500174000.19,51140,16.44,74062.5,-0.77,-1.59,-1.51,0,*69
1500174001.38,51141,16.44,74056.0,-0.77,-1.63,-1.55,0,*65
1500174002.59,51142,16.44,74056.3,-0.77,-1.55,-1.47,0,*60
1500174003.78,51143,16.44,74058.3,-0.77,-1.55,-1.51,0,*66
1500174004.97,51144,16.44,74056.8,-0.77,-1.55,-1.51,0,*61
1500174006.15,51145,16.44,74056.0,-0.77,-1.55,-1.51,0,*60
1500174007.34,51146,16.44,74058.5,-0.77,-1.63,-1.51,0,*66
1500174008.53,51147,16.44,74064.3,-0.77,-1.63,-1.51,0,*67
1500174009.71,51148,16.44,74066.3,-0.77,-1.55,-1.55,0,*69
1500174010.9,51149,16.44,74058.5,-0.77,-1.55,-1.51,0,*6C
1500174012.09,51150,16.44,74054.0,-0.77,-1.63,-1.51,0,*61
1500174013.28,51151,16.44,74056.0,-0.77,-1.63,-1.55,0,*64
1500174014.46,51152,16.44,74060.0,-0.77,-1.63,-1.55,0,*67
1500174015.65,51153,16.38,74050.5,-0.77,-1.63,-1.55,0,*66
1500174016.83,51154,16.44,74058.5,-0.77,-1.67,-1.55,0,*65
1500174018.04,51155,16.44,74060.0,-0.75,-1.51,-1.59,0,*6F
1500174019.22,51156,16.44,74058.5,-0.77,-1.63,-1.55,0,*63
1500174020.41,51157,16.44,74054.5,-0.77,-1.63,-1.55,0,*62
1500174021.6,51158,16.44,74058.3,-0.77,-1.55,-1.55,0,*68
1500174022.78,51159,16.38,74068.0,-0.77,-1.63,-1.55,0,*6C
1500174023.97,51160,16.44,74070.3,-0.77,-1.55,-1.55,0,*63
1500174025.16,51161,16.44,74064.8,-0.77,-1.67,-1.63,0,*66
1500174026.34,51162,16.44,74062.3,-0.77,-1.67,-1.55,0,*60
1500174027.53,51163,16.44,74056.8,-0.77,-1.67,-1.55,0,*61
1500174028.71,51164,16.44,74058.8,-0.77,-1.51,-1.51,0,*67
1500174029.9,51165,16.44,74058.8,-0.77,-1.63,-1.55,0,*63
1500174031.08,51166,16.44,74068.5,-0.77,-1.63,-1.55,0,*60
1500174032.27,51167,16.44,74070.0,-0.77,-1.55,-1.55,0,*64
1500174033.46,51168,16.44,74060.8,-0.77,-1.55,-1.55,0,*6B
1500174034.64,51169,16.44,74056.8,-0.77,-1.63,-1.55,0,*6F
1500174035.83,51170,16.38,74054.5,-0.77,-1.63,-1.55,0,*67
1500174037.01,51171,16.44,74060.8,-0.77,-1.67,-1.63,0,*67
1500174038.2,51172,16.44,74048.3,-0.77,-1.67,-1.55,0,*61
1500174039.39,51173,16.44,74052.0,-0.77,-1.67,-1.63,0,*65
1500174040.57,51174,16.44,74048.3,-0.77,-1.55,-1.55,0,*66
1500174041.79,51175,16.44,74048.5,-0.79,-1.63,-1.55,0,*6C
1500174043.0,51176,16.44,74056.0,-0.79,-1.63,-1.63,0,*6A
1500174044.21,51177,16.44,74060.5,-0.79,-1.63,-1.55,0,*6E
1500174045.43,51178,16.44,74062.0,-0.79,-1.63,-1.55,0,*61
1500174046.61,51179,16.44,74076.0,-0.77,-1.55,-1.55,0,*6B
1500174047.82,51180,16.44,74074.3,-0.79,-1.55,-1.55,0,*63
1500174049.04,51181,16.44,74070.0,-0.79,-1.75,-1.63,0,*65
1500174050.25,51182,16.44,74058.3,-0.79,-1.67,-1.63,0,*65
1500174051.47,51183,16.44,74060.3,-0.79,-1.67,-1.63,0,*64
1500174052.66,51184,16.44,74058.8,-0.77,-1.67,-1.55,0,*68
1500174053.84,51185,16.38,74056.8,-0.77,-1.67,-1.63,0,*6C
1500174055.06,51186,16.44,74064.5,-0.79,-1.67,-1.63,0,*61
1500174056.27,51187,16.44,74066.0,-0.79,-1.63,-1.55,0,*61
1500174057.49,51188,16.44,74060.5,-0.79,-1.63,-1.63,0,*6B
1500174058.7,51189,16.44,74068.3,-0.79,-1.63,-1.63,0,*6A
1500174059.9,51190,16.38,74066.8,-0.81,-1.67,-1.67,0,*65
1500174061.11,51191,16.44,74064.0,-0.79,-1.75,-1.63,0,*64
1500174062.33,51192,16.44,74068.5,-0.79,-1.67,-1.67,0,*60
1500174063.54,51193,16.44,74070.5,-0.79,-1.63,-1.55,0,*64
1500174064.76,51194,16.44,74060.8,-0.79,-1.67,-1.63,0,*62
1500174065.97,51195,16.38,74066.0,-0.79,-1.67,-1.55,0,*66
1500174067.18,51196,16.44,74068.0,-0.79,-1.75,-1.55,0,*66
1500174068.38,51197,16.44,74064.3,-0.81,-1.71,-1.67,0,*65
1500174069.6,51198,16.44,74074.5,-0.79,-1.63,-1.55,0,*6F
1500174070.81,51199,16.44,74076.8,-0.79,-1.63,-1.55,0,*6E
1500174071.99,51200,16.44,74072.5,-0.81,-1.59,-1.59,0,*6F
1500174073.21,51201,16.44,74074.3,-0.79,-1.63,-1.55,0,*6C
1500174074.42,51202,16.44,74070.0,-0.79,-1.63,-1.55,0,*6F
1500174075.63,51203,16.44,74064.0,-0.79,-1.55,-1.55,0,*6B
1500174076.82,51204,16.38,74064.3,-0.81,-1.71,-1.59,0,*61
1500174078.04,51205,16.38,74062.5,-0.79,-1.63,-1.55,0,*68
1500174079.25,51206,16.44,74068.8,-0.79,-1.63,-1.63,0,*6E
1500174080.44,51207,16.44,74064.8,-0.81,-1.67,-1.59,0,*65
1500174081.65,51208,16.44,74064.3,-0.79,-1.63,-1.55,0,*65
1500174082.84,51209,16.38,74066.8,-0.81,-1.63,-1.55,0,*63
1500174084.05,51210,16.38,74066.0,-0.79,-1.55,-1.55,0,*69
1500174085.27,51211,16.44,74064.0,-0.79,-1.55,-1.55,0,*68
1500174086.45,51212,16.44,74070.3,-0.81,-1.59,-1.59,0,*6C
1500174087.64,51213,16.38,74064.8,-0.81,-1.67,-1.59,0,*60
1500174088.85,51214,16.44,74064.5,-0.79,-1.67,-1.63,0,*69
1500174090.04,51215,16.44,74064.3,-0.81,-1.79,-1.59,0,*69
1500174091.26,51216,16.38,74056.0,-0.79,-1.67,-1.63,0,*6B
1500174092.47,51217,16.44,74080.3,-0.79,-1.67,-1.55,0,*6F
1500174093.69,51218,16.38,74070.8,-0.79,-1.63,-1.63,0,*61
1500174094.9,51219,16.44,74066.0,-0.79,-1.67,-1.63,0,*64
1500174096.1,51220,16.44,74062.5,-0.81,-1.71,-1.59,0,*67
1500174097.29,51221,16.44,74056.8,-0.81,-1.71,-1.59,0,*66
1500174098.49,51222,16.44,74070.3,-0.81,-1.71,-1.59,0,*65
1500174099.68,51223,16.44,74070.5,-0.81,-1.75,-1.63,0,*69
1500174100.87,51224,16.38,74064.8,-0.81,-1.71,-1.59,0,*63
1500174102.07,51225,16.44,74068.3,-0.81,-1.71,-1.67,0,*6F
1500174103.26,51226,16.44,74068.3,-0.81,-1.67,-1.59,0,*66
1500174104.45,51227,16.38,74064.5,-0.81,-1.67,-1.59,0,*67
1500174105.66,51228,16.44,74068.0,-0.79,-1.63,-1.55,0,*67
1500174106.85,51229,16.38,74068.3,-0.81,-1.59,-1.59,0,*64
1500174108.03,51230,16.44,74072.0,-0.81,-1.59,-1.59,0,*6C
1500174109.22,51231,16.44,74068.8,-0.81,-1.67,-1.59,0,*60
1500174110.41,51232,16.44,74072.8,-0.81,-1.59,-1.55,0,*62
1500174111.62,51233,16.44,74068.3,-0.79,-1.63,-1.51,0,*69
1500174112.8,51234,16.38,74066.8,-0.81,-1.59,-1.55,0,*64
1500174113.99,51235,16.38,74070.3,-0.81,-1.67,-1.55,0,*68
1500174115.21,51236,16.44,74062.8,-0.79,-1.55,-1.51,0,*69
1500174116.43,51237,16.44,74060.5,-0.81,-1.55,-1.47,0,*68
1500174117.64,51238,16.44,74070.0,-0.79,-1.55,-1.51,0,*67
1500174118.86,51239,16.44,74070.0,-0.79,-1.55,-1.51,0,*66
1500174120.04,51240,16.44,74062.0,-0.81,-1.59,-1.55,0,*67
1500174121.26,51241,16.44,74066.3,-0.79,-1.63,-1.51,0,*6C
1500174122.47,51242,16.38,74064.8,-0.79,-1.55,-1.51,0,*6A
1500174123.66,51243,16.38,74062.5,-0.81,-1.59,-1.55,0,*64
1500174124.87,51244,16.44,74066.5,-0.79,-1.55,-1.51,0,*6C
1500174126.06,51245,16.44,74068.5,-0.81,-1.67,-1.55,0,*6F
1500174127.28,51246,16.44,74068.8,-0.79,-1.63,-1.51,0,*6B
1500174128.49,51247,16.44,74070.5,-0.79,-1.55,-1.51,0,*6F
1500174129.71,51248,16.38,74070.3,-0.79,-1.67,-1.51,0,*61
1500174130.92,51249,16.44,74072.3,-0.79,-1.67,-1.55,0,*64
1500174132.11,51250,16.44,74070.3,-0.81,-1.67,-1.59,0,*67
1500174133.29,51251,16.44,74070.8,-0.81,-1.59,-1.55,0,*67
1500174134.48,51252,16.38,74068.3,-0.81,-1.67,-1.59,0,*65
1500174135.68,51253,16.44,74066.8,-0.81,-1.71,-1.59,0,*63
1500174136.89,51254,16.38,74064.8,-0.79,-1.63,-1.55,0,*6C
1500174138.1,51255,16.38,74066.0,-0.79,-1.67,-1.55,0,*69
1500174139.3,51256,16.44,74068.8,-0.81,-1.71,-1.59,0,*66
1500174140.48,51257,16.38,74064.5,-0.81,-1.67,-1.55,0,*6C
1500174141.7,51258,16.44,74064.0,-0.79,-1.67,-1.55,0,*64
1500174142.89,51259,16.44,74068.0,-0.81,-1.71,-1.59,0,*69
1500174144.11,51260,16.44,74064.3,-0.79,-1.67,-1.55,0,*6F
1500174145.32,51261,16.44,74066.0,-0.79,-1.63,-1.55,0,*6A
1500174146.51,51262,16.44,74066.3,-0.81,-1.67,-1.59,0,*66
1500174147.7,51263,16.44,74062.3,-0.81,-1.67,-1.55,0,*6B
1500174148.89,51264,16.44,74068.8,-0.81,-1.67,-1.55,0,*6C
1500174150.07,51265,16.44,74066.3,-0.81,-1.59,-1.55,0,*60
1500174151.29,51266,16.44,74066.8,-0.79,-1.63,-1.51,0,*69
1500174152.5,51267,16.38,74062.8,-0.79,-1.63,-1.51,0,*68
1500174153.71,51268,16.44,74064.3,-0.79,-1.63,-1.55,0,*63
1500174154.9,51269,16.44,74066.5,-0.81,-1.59,-1.59,0,*60
1500174156.11,51270,16.44,74066.5,-0.79,-1.55,-1.55,0,*6F
1500174157.29,51271,16.44,74062.3,-0.81,-1.59,-1.59,0,*69
1500174158.48,51272,16.44,74066.0,-0.81,-1.67,-1.55,0,*6B
1500174159.7,51273,16.44,74066.5,-0.79,-1.55,-1.55,0,*6C
1500174160.88,51274,16.38,74066.3,-0.81,-1.59,-1.59,0,*6C
1500174162.1,51275,16.44,74068.3,-0.79,-1.55,-1.51,0,*6E
1500174163.28,51276,16.44,74066.5,-0.81,-1.59,-1.55,0,*62
1500174164.47,51277,16.44,74068.0,-0.81,-1.67,-1.55,0,*6E
1500174165.66,51278,16.44,74064.8,-0.81,-1.59,-1.55,0,*6C
1500174166.87,51279,16.44,74064.3,-0.79,-1.55,-1.51,0,*62
1500174168.08,51280,16.44,74064.0,-0.79,-1.63,-1.55,0,*65
1500174169.3,51281,16.44,74064.0,-0.79,-1.55,-1.55,0,*61
1500174170.48,51282,16.44,74064.5,-0.81,-1.59,-1.55,0,*69
1500174171.67,51283,16.44,74064.8,-0.81,-1.59,-1.55,0,*68
1500174172.88,51284,16.38,74064.0,-0.79,-1.55,-1.51,0,*60
1500174174.07,51285,16.44,74070.8,-0.81,-1.67,-1.59,0,*6F
1500174175.26,51286,16.38,74066.5,-0.81,-1.67,-1.59,0,*6C
1500174176.45,51287,16.38,74066.5,-0.81,-1.67,-1.59,0,*6D
1500174177.63,51288,16.44,74064.8,-0.81,-1.59,-1.55,0,*63
1500174178.82,51289,16.38,74064.5,-0.81,-1.59,-1.55,0,*62
1500174180.01,51290,16.44,74064.8,-0.81,-1.67,-1.55,0,*67
1500174181.21,51291,16.38,74064.8,-0.81,-1.71,-1.67,0,*60
1500174182.42,51292,16.44,74066.8,-0.79,-1.67,-1.63,0,*67
1500174183.61,51293,16.44,74070.0,-0.81,-1.59,-1.59,0,*65
1500174184.82,51294,16.44,74068.5,-0.79,-1.63,-1.55,0,*60
1500174186.01,51295,16.38,74064.5,-0.81,-1.63,-1.55,0,*66
1500174187.2,51296,16.44,74068.8,-0.81,-1.67,-1.59,0,*6D
1500174188.39,51297,16.44,74066.8,-0.81,-1.67,-1.59,0,*6C
1500174189.58,51298,16.44,74074.3,-0.81,-1.67,-1.59,0,*63
1500174190.76,51299,16.38,74070.3,-0.81,-1.59,-1.55,0,*63
1500174191.98,51300,16.44,74072.8,-0.79,-1.55,-1.55,0,*69
1500174193.19,51301,16.38,74068.5,-0.79,-1.55,-1.55,0,*68
1500174194.38,51302,16.44,74070.0,-0.81,-1.67,-1.59,0,*61
1500174195.59,51303,16.38,74064.3,-0.79,-1.63,-1.55,0,*6F
1500174196.78,51304,16.38,74062.5,-0.81,-1.67,-1.59,0,*67
1500174197.96,51305,16.44,74064.5,-0.81,-1.59,-1.59,0,*6B
1500174199.15,51306,16.38,74066.5,-0.81,-1.59,-1.59,0,*68
1500174200.33,51307,16.38,74066.5,-0.81,-1.67,-1.59,0,*64
1500174201.52,51308,16.38,74066.3,-0.81,-1.55,-1.55,0,*66
1500174202.71,51309,16.44,74066.8,-0.81,-1.55,-1.55,0,*67
1500174203.9,51310,16.44,74066.0,-0.81,-1.59,-1.59,0,*6F
1500174205.08,51311,16.38,74066.3,-0.81,-1.79,-1.59,0,*6C
1500174206.28,51312,16.44,74068.3,-0.81,-1.71,-1.59,0,*67
1500174207.47,51313,16.38,74070.0,-0.81,-1.71,-1.59,0,*66
1500174208.67,51314,16.44,74066.5,-0.81,-1.71,-1.59,0,*61
1500174209.86,51315,16.44,74066.3,-0.81,-1.67,-1.59,0,*67
1500174211.05,51316,16.38,74066.8,-0.81,-1.79,-1.59,0,*6B
1500174212.25,51317,16.38,74066.5,-0.81,-1.71,-1.67,0,*6F
1500174213.44,51318,16.38,74062.5,-0.81,-1.71,-1.59,0,*6D
1500174214.64,51319,16.38,74058.8,-0.81,-1.71,-1.67,0,*61
1500174215.84,51320,16.38,74060.0,-0.81,-1.71,-1.59,0,*66
1500174217.03,51321,16.44,74062.5,-0.81,-1.71,-1.59,0,*67
1500174218.25,51322,16.38,74056.5,-0.83,-1.79,-1.59,0,*6E
1500174219.46,51323,16.44,74064.3,-0.85,-1.71,-1.63,0,*68
1500174220.68,51324,16.38,74060.8,-0.83,-1.67,-1.67,0,*6A
1500174221.9,51325,16.44,74062.3,-0.83,-1.67,-1.59,0,*66
1500174223.13,51326,16.44,74060.8,-0.83,-1.71,-1.67,0,*6F
1500174224.36,51327,16.38,74058.8,-0.83,-1.71,-1.67,0,*6E
1500174225.58,51328,16.38,74060.3,-0.83,-1.71,-1.59,0,*6C
1500174226.8,51329,16.38,74060.5,-0.83,-1.79,-1.71,0,*6F
1500174228.0,51330,16.38,74062.0,-0.81,-1.71,-1.67,0,*6A
1500174229.22,51331,16.38,74062.8,-0.83,-1.67,-1.67,0,*6E
1500174230.44,51332,16.44,74060.8,-0.83,-1.67,-1.59,0,*60
1500174231.65,51333,16.38,74056.5,-0.83,-1.59,-1.59,0,*6C
1500174232.87,51334,16.44,74058.5,-0.83,-1.67,-1.67,0,*6B
1500174234.09,51335,16.38,74060.8,-0.83,-1.67,-1.59,0,*67
1500174235.3,51336,16.38,74056.3,-0.83,-1.59,-1.59,0,*69
1500174236.51,51337,16.38,74060.3,-0.83,-1.67,-1.59,0,*65
1500174237.73,51338,16.44,74060.3,-0.83,-1.59,-1.67,0,*6A
1500174238.95,51339,16.44,74060.8,-0.83,-1.67,-1.59,0,*6B
1500174240.17,51340,16.38,74062.8,-0.83,-1.67,-1.67,0,*68
1500174241.39,51341,16.38,74062.5,-0.83,-1.67,-1.59,0,*64
1500174242.6,51342,16.44,74064.0,-0.83,-1.59,-1.59,0,*6A
1500174243.81,51343,16.38,74062.5,-0.83,-1.67,-1.59,0,*66
1500174245.04,51344,16.38,74056.3,-0.83,-1.71,-1.67,0,*6B
1500174246.26,51345,16.44,74060.0,-0.83,-1.79,-1.67,0,*62
1500174247.49,51346,16.38,74064.3,-0.83,-1.71,-1.67,0,*69
1500174248.71,51347,16.44,74066.8,-0.85,-1.71,-1.67,0,*6E
1500174249.93,51348,16.38,74062.8,-0.83,-1.67,-1.59,0,*6D
1500174251.14,51349,16.44,74064.0,-0.83,-1.67,-1.59,0,*6C
1500174252.36,51350,16.38,74060.8,-0.85,-1.71,-1.63,0,*6C
1500174253.58,51351,16.38,74064.5,-0.83,-1.71,-1.67,0,*6F
1500174254.8,51352,16.38,74064.5,-0.85,-1.75,-1.71,0,*69
1500174256.02,51353,16.38,74064.3,-0.83,-1.59,-1.67,0,*67
1500174257.23,51354,16.44,74062.3,-0.85,-1.71,-1.63,0,*68
1500174258.44,51355,16.44,74060.5,-0.83,-1.59,-1.59,0,*6C
1500174259.66,51356,16.38,74068.0,-0.85,-1.71,-1.63,0,*6A
1500174260.87,51357,16.38,74070.3,-0.83,-1.59,-1.59,0,*6E
1500174262.08,51358,16.38,74062.8,-0.83,-1.59,-1.59,0,*61
1500174263.29,51359,16.38,74056.5,-0.85,-1.63,-1.63,0,*66
1500174264.5,51360,16.38,74052.8,-0.85,-1.63,-1.63,0,*6C
1500174265.72,51361,16.38,74062.3,-0.83,-1.67,-1.59,0,*66
1500174266.93,51362,16.38,74066.5,-0.83,-1.59,-1.59,0,*68
1500174268.14,51363,16.38,74064.8,-0.85,-1.71,-1.63,0,*6C
1500174269.35,51364,16.38,74064.8,-0.83,-1.59,-1.59,0,*6E
1500174270.56,51365,16.38,74060.5,-0.83,-1.59,-1.59,0,*6F
1500174271.77,51366,16.38,74058.3,-0.85,-1.63,-1.59,0,*63
1500174272.98,51367,16.38,74060.0,-0.85,-1.63,-1.63,0,*6B
1500174274.19,51368,16.38,74060.8,-0.83,-1.59,-1.59,0,*62
1500174275.4,51369,16.38,74056.3,-0.85,-1.63,-1.63,0,*65
1500174276.61,51370,16.38,74058.3,-0.85,-1.63,-1.63,0,*6D
1500174277.81,51371,16.38,74060.3,-0.85,-1.55,-1.59,0,*60
1500174279.02,51372,16.38,74060.5,-0.85,-1.59,-1.59,0,*6F
1500174280.23,51373,16.38,74060.3,-0.83,-1.59,-1.55,0,*64
1500174281.43,51374,16.38,74062.5,-0.85,-1.63,-1.59,0,*60
1500174282.65,51375,16.38,74066.0,-0.83,-1.59,-1.55,0,*62
1500174283.85,51376,16.38,74054.3,-0.85,-1.63,-1.59,0,*62
1500174285.06,51377,16.44,74066.3,-0.85,-1.59,-1.59,0,*6A
1500174286.27,51378,16.44,74066.0,-0.83,-1.55,-1.55,0,*63
1500174287.47,51379,16.38,74060.0,-0.85,-1.59,-1.59,0,*64
1500174288.68,51380,16.38,74058.8,-0.85,-1.59,-1.59,0,*62
1500174289.88,51381,16.38,74058.8,-0.85,-1.59,-1.59,0,*63
1500174291.09,51382,16.38,74052.8,-0.83,-1.51,-1.55,0,*62
1500174292.29,51383,16.38,74054.3,-0.85,-1.59,-1.59,0,*61
1500174293.5,51384,16.44,74058.3,-0.85,-1.59,-1.51,0,*6E
1500174294.72,51385,16.38,74054.5,-0.83,-1.55,-1.55,0,*61
1500174295.93,51386,16.38,74058.3,-0.83,-1.55,-1.51,0,*66
1500174297.15,51387,16.38,74064.8,-0.83,-1.55,-1.51,0,*67
1500174298.37,51388,16.38,74066.8,-0.83,-1.55,-1.51,0,*68
1500174299.58,51389,16.38,74062.3,-0.85,-1.63,-1.55,0,*6E
1500174300.79,51390,16.38,74058.0,-0.83,-1.59,-1.55,0,*69
1500174301.99,51391,16.38,74062.3,-0.85,-1.63,-1.59,0,*6B
1500174303.2,51392,16.38,74060.8,-0.85,-1.63,-1.55,0,*64
1500174304.42,51393,16.38,74062.0,-0.83,-1.59,-1.51,0,*6E
1500174305.63,51394,16.38,74060.0,-0.83,-1.59,-1.55,0,*6D
1500174306.84,51395,16.38,74062.0,-0.83,-1.59,-1.51,0,*68
1500174308.05,51396,16.38,74062.3,-0.83,-1.59,-1.55,0,*6F
1500174309.27,51397,16.44,74060.5,-0.83,-1.59,-1.55,0,*6E
1500174310.48,51398,16.38,74066.0,-0.83,-1.59,-1.55,0,*61
1500174311.69,51399,16.38,74066.5,-0.83,-1.59,-1.55,0,*60
1500174312.9,51400,16.38,74064.5,-0.83,-1.59,-1.55,0,*67
1500174314.12,51401,16.38,74066.0,-0.83,-1.59,-1.51,0,*62
1500174315.33,51402,16.38,74066.8,-0.83,-1.59,-1.55,0,*65
1500174316.55,51403,16.38,74066.0,-0.83,-1.55,-1.51,0,*6C
1500174317.76,51404,16.38,74064.3,-0.83,-1.51,-1.51,0,*6F
1500174319.0,51405,16.38,74070.3,-0.83,-1.51,-1.43,0,*6D
1500174320.22,51406,16.44,74070.3,-0.81,-1.55,-1.43,0,*68
1500174321.41,51407,16.44,74064.0,-0.81,-1.59,-1.55,0,*62
1500174322.62,51408,16.38,74064.3,-0.83,-1.51,-1.51,0,*63
1500174323.84,51409,16.44,74068.3,-0.83,-1.55,-1.51,0,*66
1500174325.06,51410,16.38,74064.5,-0.83,-1.55,-1.51,0,*6E
1500174326.27,51411,16.38,74068.3,-0.83,-1.55,-1.51,0,*6F
1500174327.49,51412,16.38,74064.8,-0.83,-1.55,-1.51,0,*6C
1500174328.68,51413,16.38,74060.5,-0.81,-1.55,-1.51,0,*6F
1500174329.87,51414,16.38,74062.5,-0.81,-1.51,-1.51,0,*6C
1500174331.11,51415,16.38,74066.3,-0.83,-1.55,-1.43,0,*68
1500174332.33,51416,16.38,74072.5,-0.81,-1.51,-1.43,0,*6D
1500174333.55,51417,16.38,74072.5,-0.81,-1.55,-1.43,0,*68
1500174334.73,51418,16.38,74072.5,-0.81,-1.55,-1.55,0,*60
1500174335.95,51419,16.38,74072.5,-0.81,-1.51,-1.39,0,*6F
1500174337.14,51420,16.38,74064.3,-0.81,-1.55,-1.55,0,*6B
1500174338.33,51421,16.38,74058.8,-0.81,-1.55,-1.55,0,*6A
1500174339.52,51422,16.38,74054.5,-0.81,-1.55,-1.55,0,*69
1500174340.71,51423,16.38,74058.8,-0.81,-1.55,-1.55,0,*68
1500174341.9,51424,16.38,74054.8,-0.81,-1.55,-1.51,0,*6B
1500174343.14,51425,16.38,74058.5,-0.79,-1.51,-1.47,0,*6E
1500174344.35,51426,16.38,74066.8,-0.81,-1.55,-1.43,0,*6A
1500174345.54,51427,16.38,74068.5,-0.81,-1.51,-1.51,0,*6C
1500174346.73,51428,16.38,74070.0,-0.81,-1.51,-1.51,0,*63
1500174347.97,51429,16.38,74072.8,-0.79,-1.51,-1.47,0,*62
1500174349.16,51430,16.44,74072.0,-0.81,-1.55,-1.51,0,*6E
1500174350.37,51431,16.38,74070.5,-0.81,-1.51,-1.39,0,*65
1500174351.61,51432,16.38,74066.8,-0.79,-1.51,-1.35,0,*6D
1500174352.82,51433,16.38,74070.5,-0.81,-1.51,-1.39,0,*67
1500174354.06,51434,16.44,74070.3,-0.79,-1.51,-1.35,0,*6B
1500174355.28,51435,16.38,74066.3,-0.81,-1.55,-1.43,0,*68
1500174356.55,51436,16.38,74064.0,-0.79,-1.47,-1.35,0,*6E
1500174357.79,51437,16.38,74064.5,-0.79,-1.51,-1.39,0,*64
1500174359.02,51438,16.38,74062.8,-0.79,-1.51,-1.35,0,*67
1500174360.24,51439,16.38,74064.0,-0.81,-1.51,-1.43,0,*60
1500174361.48,51440,16.38,74066.8,-0.79,-1.51,-1.39,0,*64
1500174362.75,51441,16.38,74058.3,-0.79,-1.47,-1.47,0,*6B
1500174363.96,51442,16.38,74062.0,-0.81,-1.55,-1.43,0,*68
1500174365.18,51443,16.38,74062.0,-0.81,-1.55,-1.43,0,*69
1500174366.45,51444,16.38,74058.0,-0.79,-1.47,-1.47,0,*6E
1500174367.67,51445,16.38,74060.5,-0.81,-1.51,-1.39,0,*66
1500174368.86,51446,16.44,74060.5,-0.81,-1.55,-1.51,0,*6F
1500174370.1,51447,16.38,74054.0,-0.79,-1.51,-1.47,0,*6A
1500174371.33,51448,16.38,74056.3,-0.79,-1.51,-1.47,0,*65
1500174372.57,51449,16.38,74060.0,-0.79,-1.51,-1.47,0,*64
1500174373.79,51450,16.38,74056.8,-0.79,-1.55,-1.51,0,*6F
1500174375.0,51451,16.38,74056.0,-0.79,-1.55,-1.51,0,*6E
1500174376.21,51452,16.38,74060.5,-0.79,-1.55,-1.51,0,*6D
1500174377.43,51453,16.38,74060.3,-0.79,-1.55,-1.51,0,*6C
1500174378.62,51454,16.38,74062.0,-0.81,-1.55,-1.51,0,*6C
1500174379.86,51455,16.38,74058.5,-0.79,-1.47,-1.51,0,*69
1500174381.08,51456,16.38,74056.0,-0.79,-1.51,-1.51,0,*6D
1500174382.29,51457,16.38,74062.8,-0.79,-1.51,-1.51,0,*6C
1500174383.5,51458,16.38,74062.5,-0.77,-1.51,-1.47,0,*6A
1500174384.68,51459,16.38,74060.0,-0.77,-1.51,-1.51,0,*6C
1500174385.89,51460,16.38,74056.3,-0.77,-1.51,-1.47,0,*61
1500174387.13,51461,16.38,74054.8,-0.79,-1.51,-1.47,0,*6E
1500174388.4,51462,16.38,74056.5,-0.79,-1.47,-1.47,0,*6A
1500174389.61,51463,16.38,74060.5,-0.77,-1.51,-1.47,0,*62
1500174390.86,51464,16.38,74060.3,-0.77,-1.47,-1.47,0,*62
1500174392.07,51465,16.38,74062.3,-0.77,-1.47,-1.51,0,*64
1500174393.34,51466,16.38,74056.0,-0.79,-1.47,-1.39,0,*67
1500174394.53,51467,16.38,74056.0,-0.81,-1.55,-1.55,0,*68
1500174395.74,51468,16.38,74052.3,-0.79,-1.51,-1.51,0,*60
1500174396.96,51469,16.38,74056.3,-0.79,-1.55,-1.51,0,*65
1500174398.17,51470,16.38,74054.5,-0.79,-1.55,-1.51,0,*6D
1500174399.39,51471,16.38,74052.8,-0.79,-1.55,-1.51,0,*6C
1500174400.63,51472,16.38,74060.3,-0.79,-1.51,-1.47,0,*6C
1500174401.86,51473,16.38,74058.3,-0.79,-1.51,-1.47,0,*6D
1500174403.08,51474,16.38,74052.8,-0.79,-1.51,-1.51,0,*6D
1500174404.29,51475,16.38,74056.5,-0.79,-1.51,-1.51,0,*6C
1500174405.5,51476,16.38,74056.0,-0.79,-1.51,-1.51,0,*6F
1500174406.74,51477,16.38,74062.3,-0.79,-1.51,-1.47,0,*69
1500174407.95,51478,16.38,74062.0,-0.79,-1.51,-1.51,0,*61
1500174409.19,51479,16.38,74056.0,-0.79,-1.51,-1.47,0,*67
1500174410.42,51480,16.38,74056.5,-0.79,-1.51,-1.47,0,*61
1500174411.64,51481,16.38,74058.0,-0.79,-1.51,-1.51,0,*67
1500174412.87,51482,16.38,74056.5,-0.79,-1.51,-1.47,0,*63
1500174414.06,51483,16.38,74058.3,-0.81,-1.55,-1.55,0,*62
1500174415.3,51484,16.38,74058.8,-0.79,-1.51,-1.47,0,*65
1500174416.54,51485,16.38,74058.8,-0.79,-1.51,-1.47,0,*64
1500174417.78,51486,16.38,74056.8,-0.79,-1.51,-1.39,0,*6E
1500174418.99,51487,16.38,74058.3,-0.77,-1.51,-1.47,0,*68
1500174420.23,51488,16.38,74058.0,-0.79,-1.51,-1.47,0,*69
1500174421.49,51489,16.38,74056.5,-0.79,-1.47,-1.47,0,*6F
1500174422.73,51490,16.38,74058.5,-0.79,-1.51,-1.47,0,*60
1500174424.0,51491,16.38,74064.0,-0.79,-1.47,-1.47,0,*66
1500174425.21,51492,16.38,74056.8,-0.79,-1.51,-1.51,0,*65
1500174426.43,51493,16.38,74060.8,-0.77,-1.51,-1.39,0,*64
1500174427.66,51494,16.44,74068.8,-0.79,-1.51,-1.47,0,*64
1500174428.88,51495,16.38,74064.3,-0.77,-1.51,-1.47,0,*6B
1500174430.09,51496,16.38,74058.0,-0.77,-1.51,-1.47,0,*68
1500174431.27,51497,16.38,74058.0,-0.77,-1.51,-1.51,0,*6E
1500174432.48,51498,16.38,74068.3,-0.77,-1.51,-1.47,0,*66
1500174433.69,51499,16.38,74062.0,-0.79,-1.51,-1.51,0,*6E
1500174434.9,51500,16.38,74060.0,-0.79,-1.51,-1.51,0,*6F
1500174436.11,51501,16.38,74062.0,-0.77,-1.51,-1.47,0,*67
1500174437.35,51502,16.38,74062.8,-0.79,-1.51,-1.39,0,*63
1500174438.56,51503,16.38,74060.5,-0.77,-1.51,-1.47,0,*65
1500174439.75,51504,16.38,74064.0,-0.77,-1.51,-1.51,0,*65
1500174440.96,51505,16.38,74066.0,-0.77,-1.51,-1.47,0,*63
1500174442.2,51506,16.38,74062.8,-0.77,-1.47,-1.47,0,*67
1500174443.47,51507,16.38,74068.0,-0.75,-1.43,-1.35,0,*65
1500174444.74,51508,16.44,74072.8,-0.75,-1.47,-1.35,0,*6E
1500174445.95,51509,16.38,74066.3,-0.77,-1.51,-1.47,0,*6F
1500174447.16,51510,16.38,74064.3,-0.77,-1.51,-1.35,0,*62
1500174448.41,51511,16.38,74056.8,-0.77,-1.47,-1.39,0,*68
1500174449.65,51512,16.38,74064.0,-0.77,-1.47,-1.39,0,*6B
1500174450.92,51513,16.38,74064.3,-0.75,-1.43,-1.35,0,*60
1500174452.16,51514,16.38,74062.0,-0.77,-1.47,-1.39,0,*6D
1500174453.41,51515,16.38,74064.8,-0.77,-1.43,-1.39,0,*68
1500174454.67,51516,16.38,74060.8,-0.75,-1.43,-1.35,0,*65
1500174455.92,51517,16.38,74062.8,-0.77,-1.47,-1.43,0,*63
1500174457.13,51518,16.38,74064.3,-0.77,-1.51,-1.47,0,*6F
1500174458.37,51519,16.38,74064.8,-0.77,-1.47,-1.39,0,*60
1500174459.62,51520,16.38,74062.0,-0.77,-1.47,-1.39,0,*6A
1500174460.83,51521,16.38,74060.3,-0.77,-1.51,-1.39,0,*6C
1500174462.1,51522,16.38,74062.8,-0.75,-1.47,-1.35,0,*66
1500174463.34,51523,16.38,74066.3,-0.77,-1.47,-1.47,0,*60
1500174464.55,51524,16.38,74064.3,-0.77,-1.51,-1.47,0,*60
1500174465.82,51525,16.38,74066.5,-0.75,-1.43,-1.35,0,*65
1500174467.06,51526,16.38,74062.0,-0.77,-1.47,-1.39,0,*6C
1500174468.33,51527,16.38,74066.8,-0.75,-1.47,-1.43,0,*62
1500174469.6,51528,16.38,74064.5,-0.75,-1.43,-1.43,0,*69
1500174470.81,51529,16.38,74066.5,-0.77,-1.51,-1.47,0,*6D
1500174472.05,51530,16.38,74066.5,-0.75,-1.43,-1.33,0,*67
1500174473.26,51531,16.38,74062.5,-0.77,-1.51,-1.39,0,*6D
1500174474.45,51532,16.38,74062.8,-0.77,-1.51,-1.51,0,*60
1500174475.63,51533,16.38,74064.8,-0.77,-1.51,-1.51,0,*61
1500174476.88,51534,16.38,74070.0,-0.77,-1.47,-1.39,0,*6F
1500174478.15,51535,16.38,74068.8,-0.75,-1.47,-1.43,0,*61
1500174479.41,51536,16.38,74062.0,-0.75,-1.43,-1.35,0,*67
1500174480.68,51537,16.38,74062.3,-0.75,-1.43,-1.43,0,*67
1500174481.95,51538,16.38,74066.8,-0.75,-1.47,-1.35,0,*6D
1500174483.22,51539,16.38,74066.8,-0.75,-1.47,-1.43,0,*6D
1500174484.46,51540,16.38,74068.3,-0.77,-1.47,-1.47,0,*65
1500174485.73,51541,16.38,74068.5,-0.75,-1.47,-1.47,0,*66
1500174487.0,51542,16.38,74070.0,-0.75,-1.43,-1.35,0,*64
1500174488.27,51543,16.38,74066.0,-0.75,-1.43,-1.35,0,*65
1500174489.54,51544,16.38,74066.0,-0.75,-1.43,-1.35,0,*62
1500174490.81,51545,16.38,74064.8,-0.75,-1.43,-1.43,0,*62
1500174492.05,51546,16.38,74070.0,-0.77,-1.47,-1.39,0,*6A
1500174493.32,51547,16.38,74064.8,-0.75,-1.47,-1.43,0,*64
1500174494.59,51548,16.38,74064.5,-0.75,-1.43,-1.43,0,*6F
1500174495.86,51549,16.38,74064.8,-0.75,-1.47,-1.43,0,*6A
1500174497.13,51550,16.38,74072.5,-0.75,-1.47,-1.43,0,*62
1500174498.4,51551,16.38,74072.0,-0.75,-1.47,-1.47,0,*67
1500174499.58,51552,16.38,74070.0,-0.77,-1.51,-1.51,0,*66
1500174500.85,51553,16.38,74062.3,-0.75,-1.47,-1.43,0,*61